Location: Alafon
(8.4500°N, 4.2333°E)
Time: 18:32:15
(UTC+00:00)

A-11 Canister half - Pass Details

Date: 10 August 2021
Orbit: 1515 x 1685 km, 47.2° (Epoch: 19 September)

Event Time Altitude Azimuth Distance (km) Brightness Sun altitude
Rises 21:49:15 0° 325° (NW) 4,915 12.2 -52.1°
Reaches altitude 10° 21:52:27 10° 328° (NNW) 3,935 11.5 -52.7°
Enters shadow 21:56:44 29° 336° (NNW) 2,718 10.4 -53.6°
Maximum altitude 22:02:31 66° 49° (NE) 1,807 - -54.6°
Drops below altitude 10° 22:12:29 10° 129° (SE) 3,908 - -56.4°
Sets 22:15:39 0° 132° (SE) 4,879 - -57.0°
